sat.trackr.live / text

‹ back to catalog

STARLINK-30145

NORAD 57496 · 2023-113B

PAYLOAD ACTIVE UNKNOWN

§ Identity

Operator
Country
US
Launch date
2023-08-07
Launch site
AFETR
Launch vehicle
Mass (kg)
RCS (m²)

Purposes: comms

External: N2YO · Heavens-Above · Gunter

§ Orbital elements

Epoch: 2026-05-24T18:58:15.615264Z

Period
94.27 min
Inclination
43.0026°
Eccentricity
0.0001483
Mean motion
15.27569541 rev/d
Perigee alt
482.1 km
Apogee alt
484.1 km
Semi-major
6,861.2 km
B*
1.3274e-4
RAAN
306.3063°
Arg perigee
258.5774°
Mean anomaly
101.4911°
Rev number
15,520

§ Raw data

STARLINK-301451 57496U 23113B   26144.79045851  .00003391  00000+0  13274-3 0  99922 57496  43.0026 306.3063 0001483 258.5774 101.4911 15.27569541155208

JSON: /api/v1/satellites/57496 · /tle

For live sub-satellite position, see the globe view (requires WebGL).

§ Visibility from observer

Set your observer location to see the next 7 days of passes ≥ 10°. The values pass through the URL so the page stays shareable.

No JS? Fill the form by hand. The geolocation button needs JavaScript.